Dubuque, IA

7:11 AM CST on November 17, 2019 (GMT -0600)
Dubuque Regional

Weather History for KDBQ - September, 2019

Change the Weather History Date:

Wednesday, September 11, 2019

  Actual Average Record
Temperature  
Mean Temperature 75 °F 64 °F  
Max Temperature 84 °F 74 °F 96 °F (1895)
Min Temperature 68 °F 54 °F 36 °F (1917)
Degree Days  
Heating Degree Days 0 3  
Month to date heating degree days 27  
Since 1 July heating degree days 54  
Cooling Degree Days 10 2  
Month to date cooling degree days 35  
Year to date cooling degree days 611  
Growing Degree Days 25 (Base 50)    
Moisture  
Dew Point 71 °F    
Average Humidity 94    
Maximum Humidity 100    
Minimum Humidity 74    
Precipitation  
Precipitation 1.41 in 0.12 in 1.66 in (1879)
Month to date precipitation 1.30  
Year to date precipitation 27.28  
Snow  
Snow - 0.00 in - ()
Month to date snowfall 0.0  
Since 1 July snowfall 0.0  
Since 1 September snowfall 0.0  
Snow Depth -    
Sea Level Pressure  
Sea Level Pressure 30.03 in    
Wind  
Wind Speed 9 mph ()    
Max Wind Speed 32 mph    
Max Gust Speed 45 mph    
Visibility 5.9 miles    
Events Rain , Thunderstorm    
T = Trace of Precipitation, MM = Missing Value Source: Averaged Metar Reports

Daily Weather History Graph

Daily Weather History Graph

Search for Another Location

Airport or City:

Astronomy

Sep. 11, 2019 Rise Set
Actual Time 6:38 AM CDT 7:19 PM CDT
Civil Twilight 6:09 AM CDT 7:48 PM CDT
Nautical Twilight 5:36 AM CDT 8:21 PM CDT
Astronomical Twilight 5:01 AM CDT 8:56 PM CDT
Moon 6:35 PM CDT (9/11) 3:56 AM CDT (9/11)
Length of Visible Light 13h 38m
Length of Day
12h 41m
Waxing Gibbous, 95% of the Moon is Illuminated
Sep 11
Waxing Gibbous
Sep 13
Full
Sep 21
Last Quarter
Sep 28
New
Oct 5
First Quarter

Hourly Weather History & Observations

Time (CDT) Temp. Heat Index Dew Point Humidity Pressure Visibility Wind Dir Wind Speed Gust Speed Precip Events Conditions
1:53 AM 72.0 °F - 71.1 °F 97% 30.06 in 8.0 mi SSW 8.1 mph - N/A   Clear
2:53 AM 71.1 °F - 70.0 °F 96% 30.06 in 6.0 mi South 4.6 mph - N/A   Partly Cloudy
3:53 AM 72.0 °F - 71.1 °F 97% 30.06 in 4.0 mi South 6.9 mph - N/A   Scattered Clouds
4:53 AM 71.1 °F - 71.1 °F 100% 30.05 in 5.0 mi SSW 5.8 mph - N/A   Scattered Clouds
5:53 AM 71.1 °F - 71.1 °F 100% 30.04 in 4.0 mi South 6.9 mph - N/A   Clear
6:53 AM 71.1 °F - 71.1 °F 100% 30.05 in 4.0 mi South 6.9 mph - N/A   Clear
7:53 AM 72.0 °F - 71.1 °F 97% 30.07 in 4.0 mi South 8.1 mph - N/A   Clear
8:53 AM 73.9 °F - 72.0 °F 93% 30.06 in 7.0 mi SSW 9.2 mph - N/A   Clear
10:53 AM 77.0 °F - 72.0 °F 84% 30.06 in 10.0 mi SW 11.5 mph - N/A   Clear
11:53 AM 77.0 °F - 71.1 °F 82% 30.05 in 7.0 mi SW 17.3 mph 25.3 mph N/A   Partly Cloudy
12:53 PM 77.0 °F - 71.1 °F 82% 30.02 in 10.0 mi SSW 18.4 mph - N/A   Clear
1:53 PM 75.9 °F - 73.0 °F 91% 30.00 in 7.0 mi SSW 10.4 mph - 0.02 in Rain Light Rain
4:53 PM 82.0 °F 87.9 °F 73.9 °F 76% 29.99 in 10.0 mi WSW 5.8 mph - N/A   Partly Cloudy
5:53 PM 82.9 °F 89.4 °F 73.9 °F 74% 29.99 in 10.0 mi WSW 4.6 mph - N/A   Partly Cloudy
6:16 PM 82.0 °F 87.9 °F 73.9 °F 76% 30.02 in 10.0 mi Calm Calm - N/A Thunderstorm Mostly Cloudy
6:38 PM 80.1 °F 84.5 °F 73.9 °F 81% 30.01 in 10.0 mi Variable 3.5 mph - N/A Thunderstorm Thunderstorm
6:53 PM 75.9 °F - 73.0 °F 91% 30.01 in 4.0 mi WNW 20.7 mph 29.9 mph 0.00 in Rain , Thunderstorm Light Thunderstorms and Rain
6:56 PM 73.9 °F - 72.0 °F 93% 30.03 in 2.5 mi WNW 16.1 mph 29.9 mph 0.00 in Rain , Thunderstorm Heavy Thunderstorms and Rain
7:01 PM 73.9 °F - 71.1 °F 91% 30.03 in 1.5 mi WNW 16.1 mph 26.5 mph 0.07 in Rain , Thunderstorm Heavy Thunderstorms and Rain
7:28 PM 71.1 °F - 68.0 °F 90% 30.04 in 3.0 mi NW 15.0 mph 25.3 mph 0.49 in Rain , Thunderstorm Heavy Thunderstorms and Rain
7:32 PM 72.0 °F - 69.1 °F 91% 30.00 in 1.8 mi WNW 32.2 mph 44.9 mph 0.51 in Rain , Thunderstorm Heavy Thunderstorms and Rain
7:53 PM 69.1 °F - 69.1 °F 100% 30.00 in 1.8 mi WSW 28.8 mph 38.0 mph 0.87 in Rain , Thunderstorm Heavy Thunderstorms and Rain
7:59 PM 69.1 °F - 69.1 °F 100% 30.02 in 3.0 mi WSW 11.5 mph 23.0 mph 0.09 in Rain , Thunderstorm Light Thunderstorms and Rain
8:16 PM 70.0 °F - 70.0 °F 100% 30.01 in 7.0 mi SW 3.5 mph - 0.11 in Rain , Thunderstorm Light Rain
8:31 PM 69.1 °F - - N/A% 30.01 in 9.0 mi NNW 4.6 mph - 0.13 in Rain Light Rain
8:53 PM 70.0 °F - 70.0 °F 100% 30.00 in 10.0 mi Calm Calm - 0.13 in   Scattered Clouds
9:53 PM 70.0 °F - 70.0 °F 100% 30.03 in 10.0 mi NE 9.2 mph - N/A   Overcast
10:11 PM 70.0 °F - 70.0 °F 100% 30.04 in 10.0 mi ESE 9.2 mph 17.3 mph N/A Thunderstorm Overcast
10:26 PM 70.0 °F - 70.0 °F 100% 30.04 in 2.0 mi NE 17.3 mph 24.2 mph 0.06 in Rain Rain
10:31 PM 69.8 °F - 69.8 °F 100% 30.04 in 3.0 mi NNE 16.1 mph - N/A Rain Light Rain
10:39 PM 69.1 °F - 69.1 °F 100% 30.04 in 2.0 mi NE 13.8 mph - 0.10 in Rain Heavy Rain
10:53 PM 69.1 °F - 69.1 °F 100% 30.03 in 10.0 mi NE 13.8 mph - 0.24 in   Overcast
11:14 PM 69.1 °F - 69.1 °F 100% 30.07 in 10.0 mi NNE 16.1 mph - N/A Thunderstorm Overcast
11:40 PM 69.1 °F - 68.0 °F 96% 30.05 in 3.0 mi ENE 16.1 mph - 0.13 in Rain Rain
11:49 PM 69.8 °F - 68.0 °F 94% 30.05 in 3.0 mi ENE 15.0 mph - 0.14 in Rain , Thunderstorm Rain
11:50 PM 68.0 °F - 68.0 °F 100% 30.03 in 3.0 mi NE 15.0 mph - 0.15 in Rain , Thunderstorm Heavy Rain
11:57 PM 68.0 °F - 68.0 °F 100% 30.06 in 2.5 mi NNE 11.5 mph 20.7 mph 0.12 in Rain , Thunderstorm Rain